DW4174 Weather Reports


time (UTC)temp
F
wind
direction
speed
knots
gust
knots
rain 1hr
in
rain 24hr
in
rain mn
in
humidity
%
barometer
mb
20260506210908 83 314 4.3 7.8 0.00 0.00 0.00 19 1012.7
20260506210009 83 317 5.2 16.5 0.00 0.00 0.00 19 1012.8
20260506205110 84 277 5.2 10.4 0.00 0.00 0.00 19 1012.9
20260506204209 85 248 3.5 11.3 0.00 0.00 0.00 19 1013.1
20260506203309 84 263 3.5 8.7 0.00 0.00 0.00 19 1013.2
20260506202409 82 299 4.3 9.6 0.00 0.00 0.00 20 1013.2
20260506200608 84 280 4.3 12.2 0.00 0.00 0.00 20 1013.4
20260506195709 83 260 2.6 6.1 0.00 0.00 0.00 21 1013.4
20260506194808 83 258 4.3 9.6 0.00 0.00 0.00 20 1013.6
20260506193908 83 246 3.5 9.6 0.00 0.00 0.00 21 1013.6
20260506192110 84 262 4.3 10.4 0.00 0.00 0.00 21 1013.9
20260506190308 81 313 2.6 9.6 0.00 0.00 0.00 22 1014.0
20260506185408 80 191 2.6 6.1 0.00 0.00 0.00 24 1014.1
20260506184509 80 182 2.6 6.1 0.00 0.00 0.00 24 1014.2
20260506183608 81 270 4.3 10.4 0.00 0.00 0.00 24 1014.4
20260506180908 79 190 1.7 7.0 0.00 0.00 0.00 26 1014.7
20260506175108 78 355 2.6 7.0 0.00 0.00 0.00 27 1014.8
20260506174208 78 303 2.6 7.0 0.00 0.00 0.00 27 1014.8
20260506173308 76 244 2.6 7.8 0.00 0.00 0.00 29 1014.9
20260506171509 76 253 2.6 6.1 0.00 0.00 0.00 28 1014.8
20260506170609 77 261 1.7 8.7 0.00 0.00 0.00 28 1014.8
20260506164809 74 303 2.6 5.2 0.00 0.00 0.00 29 1014.8
20260506163908 75 293 1.7 7.0 0.00 0.00 0.00 29 1014.7
20260506163008 74 172 2.6 7.0 0.00 0.00 0.00 32 1014.8
20260506161208 72 136 0.9 3.5 0.00 0.00 0.00 32 1014.7
20260506160308 72 165 1.7 3.5 0.00 0.00 0.00 33 1014.7
20260506152708 70 347 1.7 4.3 0.00 0.00 0.00 35 1014.9
20260506151808 70 73 1.7 3.5 0.00 0.00 0.00 35 1014.9
20260506150908 69 123 0.0 3.5 0.00 0.00 0.00 36 1014.9
20260506150008 68 146 0.0 0.9 0.00 0.00 0.00 38 1014.8
20260506145108 67 146 0.9 1.7 0.00 0.00 0.00 39 1014.7
20260506144208 66 146 0.9 2.6 0.00 0.00 0.00 40 1014.7
20260506143308 66 146 0.9 3.5 0.00 0.00 0.00 42 1014.6
20260506142408 65 147 0.9 3.5 0.00 0.00 0.00 43 1014.5
20260506141509 64 148 0.9 3.5 0.00 0.00 0.00 44 1014.4
20260506140608 64 145 0.9 3.5 0.00 0.00 0.00 44 1014.3
20260506135708 63 114 0.9 2.6 0.00 0.00 0.00 45 1014.2
20260506134808 62 160 1.7 5.2 0.00 0.00 0.00 45 1014.0
20260506133908 62 175 0.9 2.6 0.00 0.00 0.00 46 1013.9
20260506133008 61 175 0.0 2.6 0.00 0.00 0.00 48 1013.8
20260506131208 58 0 0.0 0.0 0.00 0.00 0.00 51 1013.6
20260506125408 57 0 0.0 0.0 0.00 0.00 0.00 52 1013.5
20260506124508 57 0 0.0 0.0 0.00 0.00 0.00 51 1013.4
20260506123608 57 0 0.0 0.0 0.00 0.00 0.00 50 1013.3
20260506121808 59 175 1.7 2.6 0.00 0.00 0.00 47 1013.0
20260506120908 59 174 0.9 2.6 0.00 0.00 0.00 46 1012.9
20260506120008 59 175 0.9 2.6 0.00 0.00 0.00 47 1012.9
20260506115108 60 175 1.7 2.6 0.00 0.00 0.00 45 1012.9
20260506114208 60 185 1.7 3.5 0.00 0.00 0.00 45 1012.9
20260506113308 61 195 0.9 3.5 0.00 0.00 0.00 45 1012.9
20260506112408 60 199 0.0 3.5 0.00 0.00 0.00 46 1012.8
20260506111508 60 0 0.0 0.0 0.00 0.00 0.00 48 1012.8
20260506110608 59 0 0.0 0.0 0.00 0.00 0.00 49 1012.7
20260506105708 59 0 0.0 0.0 0.00 0.00 0.00 49 1012.7
20260506103908 60 252 0.0 1.7 0.00 0.00 0.00 47 1012.6
20260506103008 60 252 0.9 1.7 0.00 0.00 0.00 46 1012.5
20260506102108 60 252 0.0 1.7 0.00 0.00 0.00 46 1012.4
20260506101208 60 0 0.0 0.0 0.00 0.00 0.00 47 1012.3
20260506100308 60 0 0.0 0.0 0.00 0.00 0.00 46 1012.2
20260506095408 60 0 0.0 0.0 0.00 0.00 0.00 46 1012.3
20260506094508 60 0 0.0 0.0 0.00 0.00 0.00 45 1012.2
20260506093608 61 252 0.0 0.9 0.00 0.00 0.00 45 1012.1
20260506092708 61 0 0.0 0.0 0.00 0.00 0.00 44 1012.1
20260506091808 61 0 0.0 0.0 0.00 0.00 0.00 44 1012.1
20260506090907 61 0 0.0 0.0 0.00 0.00 0.00 44 1012.1
20260506090007 62 0 0.0 0.0 0.00 0.00 0.00 42 1012.1
20260506085107 63 252 0.9 1.7 0.00 0.00 0.00 41 1012.0
20260506084207 64 250 2.6 4.3 0.00 0.00 0.00 40 1012.1
20260506082407 64 251 1.7 5.2 0.00 0.00 0.00 40 1011.9
20260506080607 63 276 0.9 3.5 0.00 0.00 0.00 40 1011.9
20260506073008 63 278 0.0 1.7 0.00 0.00 0.00 38 1011.8
20260506072109 64 278 0.0 1.7 0.00 0.00 0.00 37 1011.7
20260506071207 64 0 0.0 0.0 0.00 0.00 0.00 38 1011.7
20260506070308 64 0 0.0 0.0 0.00 0.00 0.00 37 1011.7
20260506061807 64 280 0.0 0.9 0.00 0.00 0.00 36 1011.4
20260506060907 64 280 0.0 0.9 0.00 0.00 0.00 36 1011.3
20260506050607 68 274 3.5 7.0 0.00 0.00 0.00 31 1011.0
20260506043907 69 254 3.5 7.0 0.00 0.00 0.00 30 1010.6
20260506043007 70 255 2.6 6.1 0.00 0.00 0.00 30 1010.7
20260506042107 69 255 3.5 5.2 0.00 0.00 0.00 30 1010.6
20260506041207 70 251 2.6 7.8 0.00 0.00 0.00 30 1010.5
20260506040307 70 250 2.6 7.0 0.00 0.00 0.00 29 1010.4
20260506035407 70 247 4.3 7.0 0.00 0.00 0.00 29 1010.2
20260506033608 71 264 4.3 8.7 0.00 0.00 0.00 28 1010.1
20260506031807 72 258 5.2 9.6 0.00 0.00 0.00 27 1009.8
20260506030907 72 261 5.2 9.6 0.00 0.00 0.00 27 1009.7
20260506030007 72 263 6.1 9.6 0.00 0.00 0.00 26 1009.5
20260506025107 72 265 6.1 9.6 0.00 0.00 0.00 26 1009.4
20260506024208 72 266 7.0 10.4 0.00 0.00 0.00 26 1009.3
20260506023307 73 264 6.1 10.4 0.00 0.00 0.00 26 1009.2
20260506022408 73 263 6.1 10.4 0.00 0.00 0.00 26 1009.0
20260506021508 73 263 7.0 10.4 0.00 0.00 0.00 26 1008.8
20260506020607 74 259 7.0 13.9 0.00 0.00 0.00 26 1008.7
20260506015707 74 258 7.0 12.2 0.00 0.00 0.00 26 1008.7
20260506013907 75 269 7.8 13.9 0.00 0.00 0.00 25 1008.5
20260506012107 76 275 7.8 13.0 0.00 0.00 0.00 25 1008.4
20260506004507 77 280 8.7 14.8 0.00 0.00 0.00 24 1008.1
20260506003607 78 273 7.8 14.8 0.00 0.00 0.00 23 1008.2
20260506002707 78 281 5.2 13.0 0.00 0.00 0.00 25 1008.0
20260506001807 78 245 5.2 10.4 0.00 0.00 0.00 25 1008.0
20260506000907 78 246 7.8 15.6 0.00 0.00 0.00 25 1007.9
20260506000007 79 268 7.8 15.6 0.00 0.00 0.00 24 1007.9
20260505234207 79 270 9.6 18.2 0.00 0.00 0.00 24 1007.8
20260505233307 79 272 7.8 13.9 0.00 0.00 0.00 23 1007.8
20260505232407 77 290 7.8 13.9 0.00 0.00 0.00 26 1007.9
20260505231507 78 273 7.8 13.9 0.00 0.00 0.00 25 1007.9
20260505230607 79 255 5.2 13.9 0.00 0.00 0.00 25 1008.0
20260505224807 79 273 7.0 13.9 0.00 0.00 0.00 25 1007.9
20260505223907 81 250 7.0 13.0 0.00 0.00 0.00 24 1008.2
20260505222107 79 273 7.8 13.9 0.00 0.00 0.00 26 1008.3
20260505220306 81 269 8.7 17.4 0.00 0.00 0.00 24 1008.5
20260505215406 81 268 6.1 14.8 0.00 0.00 0.00 24 1008.4
20260505214508 79 264 7.8 13.9 0.00 0.00 0.00 26 1008.5
20260505213607 80 270 6.1 13.9 0.00 0.00 0.00 25 1008.5
20260505212706 81 236 5.2 11.3 0.00 0.00 0.00 25 1008.6
20260505211806 82 240 6.1 15.6 0.00 0.00 0.00 24 1008.8